Regional Weather Roundup
Issued by NWS

Home | Current Version | Previous Version | Graphics & Text | Print | Product List | Glossary On
Versions: 1 2 3 4 5 6 7 8 9 10 11 12 13 14 15 16 17 18 19 20 21 22 23 24 25 26 27 28 29 30 31 32 33 34 35 36 37 38 39 40 41 42 43 44 45 46 47 48 49 50
000
ASUS45 KCYS 151510
RWRWY

WYOMING REGIONAL WEATHER ROUNDUP
NATIONAL WEATHER SERVICE CHEYENNE WY
900 AM MDT MON SEP 15 2014

NOTE:  "FAIR" INDICATES FEW OR NO CLOUDS BELOW 12,000 FEET
WITH NO SIGNIFICANT WEATHER AND/OR OBSTRUCTIONS TO VISIBILITY.

WYZ001-151600-
YELLOWSTONE NATIONAL PARK

CITY           SKY/WX    TMP DP  RH WIND       PRES   REMARKS
LK YELLOWSTONE   N/A     42  35  76 CALM      30.35S
W YELLOWSTONE  NOT AVBL

$$
WYZ002>013-054>058-071-098>099-151600-
NORTHERN WYOMING

CITY           SKY/WX    TMP DP  RH WIND       PRES   REMARKS
JACKSON        MOSUNNY   43  28  56 CALM      30.32R
CODY           SUNNY     52  39  62 SW10      30.22F
GREYBULL       SUNNY     48  41  76 CALM      30.23F
WORLAND        SUNNY     47  42  83 SW5       30.23S
SHERIDAN       SUNNY     46  39  76 CALM      30.21F
BUFFALO        SUNNY     50  40  68 SE5       30.23F
GILLETTE       SUNNY     52  45  77 NE3       30.25S
HULETT         FAIR      50  43  76 MISG      30.28
NEWCASTLE      FAIR      45  37  76 S3        30.30

$$
WYZ014>020-022>026-101>103-151600-
CENTRAL WYOMING

CITY           SKY/WX    TMP DP  RH WIND       PRES   REMARKS
BIG PINEY      MOSUNNY   48  27  44 CALM      30.37R
PINEDALE       PTSUNNY   45  28  53 NW3       30.36S
DUBOIS         FAIR      43  30  61 NW9       30.33F
LANDER         SUNNY     48  37  65 CALM      30.29S
RIVERTON       SUNNY     49  37  63 NW6       30.30S
CASPER         SUNNY     49  38  65 MISG      30.29F
DOUGLAS        SUNNY     47  42  83 CALM      30.31S

$$
WYZ021-027>030-104>119-151600-
SOUTHERN WYOMING

CITY           SKY/WX    TMP DP  RH WIND       PRES   REMARKS
EVANSTON       PTSUNNY   57  35  43 VRB7      30.32R
KEMMERER       PTSUNNY   48  32  53 N8        30.35S
FORT BRIDGER   FAIR      54  35  48 NE5       30.35F
ROCK SPRINGS   MOSUNNY   50  34  54 NE6       30.32F
DIXON          FAIR      55  36  49 E5        30.35R
RAWLINS        SUNNY     49  40  71 E7        30.35S
SARATOGA       FAIR      48  36  61 CALM      30.36S
LARAMIE        SUNNY     49  40  71 S9        30.37S
CHEYENNE       SUNNY     53  38  56 SW5       30.37R
TORRINGTON     SUNNY     44  41  89 VRB3      30.32R
PINE BLUFFS    FAIR      43  43 100 S3        30.37R

$$


USA.gov is the U.S. government's official web portal to all federal, state and local government web resources and services.